Location: Unspecified
(50.8470°N, 0.0000°E)
Time: 16:56:53
(UTC+00:00)

USA 238 - Pass Details

Date: 29 December 1899
Orbit: 883 x 1328 km, 63.4° (Epoch: 10 January)

Event Time Altitude Azimuth Distance (km) Brightness Sun altitude
Rises 21:54:05 0° 314° (NW) 3,496 7.0 -54.8°
Enters shadow 21:54:45 - 315° (NW) 3,249 6.7 -54.9°
Exits shadow 22:28:47 -39° 128° (SE) 9,664 8.7 -58.5°
